Preview of NWS' New Version of Forecast
This preview is not operational and should not be used for support decisions.

Regional Weather Roundup (RWR)

Issued by National Weather Service (NWS)

                            
000
ASUS45 KCYS 182010
RWRWY 

WYOMING REGIONAL WEATHER ROUNDUP
NATIONAL WEATHER SERVICE CHEYENNE WY
100 PM MST FRI JAN 18 2019

NOTE:  "FAIR" INDICATES FEW OR NO CLOUDS BELOW 12,000 FEET
WITH NO SIGNIFICANT WEATHER AND/OR OBSTRUCTIONS TO VISIBILITY.

WYZ001-182100-
...YELLOWSTONE NATIONAL PARK...
  
CITY           SKY/WX    TMP DP  RH WIND       PRES   REMARKS
LK YELLOWSTONE   N/A     27  19  72 VRB6      30.07R WCI  20          
W YELLOWSTONE  NOT AVBL                                               

$$
WYZ002>013-054>058-071-098>099-182100-
...NORTHERN WYOMING...
  
CITY           SKY/WX    TMP DP  RH WIND       PRES   REMARKS
JACKSON        CLOUDY    32  24  72 VRB6      30.10S WCI  26          
CODY           MOSUNNY   43  18  36 W13G22    29.96S                  
GREYBULL       CLOUDY    24  20  84 S6        30.03S WCI  17          
WORLAND        MOSUNNY   24  21  88 NW3       30.01F                  
SHERIDAN       CLOUDY    28  22  78 NW5       30.00F WCI  23          
BUFFALO        CLOUDY    26  24  92 CALM      29.96F                  
GILLETTE       CLOUDY    24  21  88 W8        29.97F WCI  15          
HULETT         CLOUDY    21  19  93 N3        29.99R                  
NEWCASTLE      FAIR      25  19  80 NW16      29.97F WCI  12          

$$
WYZ014>020-022>026-101>103-182100-
...CENTRAL WYOMING...
  
CITY           SKY/WX    TMP DP  RH WIND       PRES   REMARKS
BIG PINEY      MOSUNNY   32  20  61 N21G29    30.06S WCI  20          
PINEDALE       MOSUNNY   30  23  74 NW20      30.06R WCI  18          
DUBOIS         PTSUNNY   32  16  51 W22       30.00F WCI  19          
LANDER         PTSUNNY   39  23  52 E5        29.99R                  
RIVERTON       MOSUNNY   37  22  54 SE6       29.99S WCI  32          
CASPER         MOSUNNY   31  23  72 S7        29.97F WCI  24          
DOUGLAS        CLOUDY    30  25  81 NW12      29.99R WCI  20          

$$
WYZ021-027>030-104>119-182100-
...SOUTHERN WYOMING...
  
CITY           SKY/WX    TMP DP  RH WIND       PRES   REMARKS
EVANSTON       CLOUDY    27  22  81 SW14      30.16R WCI  16          
KEMMERER       NOT AVBL                                               
FORT BRIDGER   FAIR      30  27  90 W24       30.16S WCI  16          
ROCK SPRINGS   CLOUDY    27  23  85 W22       30.06S WCI  13          
DIXON          LGT SNOW  30  26  83 NW20      30.04R WCI  18          
RAWLINS        CLOUDY    31  25  78 W14       29.99S WCI  21          
SARATOGA       LGT SNOW  30  30 100 W14       29.99R WCI  20          
LARAMIE        LGT SNOW  28  25  88 NW18      29.91  FOG     WCI  15  
CHEYENNE       LGT SNOW  30  25  81 N31G44    29.89R WCI  15          
TORRINGTON     CLOUDY    34  27  75 N18G26    29.94S WCI  23          
PINE BLUFFS    CLOUDY    30  25  80 N25G33    29.90R WCI  16          

$$
  

000
ASUS45 KCYS 182010
RWRWY 

WYOMING REGIONAL WEATHER ROUNDUP
NATIONAL WEATHER SERVICE CHEYENNE WY
100 PM MST FRI JAN 18 2019

NOTE:  "FAIR" INDICATES FEW OR NO CLOUDS BELOW 12,000 FEET
WITH NO SIGNIFICANT WEATHER AND/OR OBSTRUCTIONS TO VISIBILITY.

WYZ001-182100-
YELLOWSTONE NATIONAL PARK
  
CITY           SKY/WX    TMP DP  RH WIND       PRES   REMARKS
LK YELLOWSTONE   N/A     27  19  72 VRB6      30.07R WCI  20          
W YELLOWSTONE  NOT AVBL                                               

$$
WYZ002>013-054>058-071-098>099-182100-
NORTHERN WYOMING
  
CITY           SKY/WX    TMP DP  RH WIND       PRES   REMARKS
JACKSON        CLOUDY    32  24  72 VRB6      30.10S WCI  26          
CODY           FAIR      43  18  36 W13G22    29.96S                  
GREYBULL       CLOUDY    24  20  84 S6        30.03S WCI  17          
WORLAND        FAIR      24  21  88 NW3       30.01F                  
SHERIDAN       CLOUDY    28  22  78 NW5       30.00F WCI  23          
BUFFALO        CLOUDY    26  24  92 CALM      29.96F                  
GILLETTE       CLOUDY    24  21  88 W8        29.97F WCI  15          
HULETT         CLOUDY    21  19  93 N3        29.99                   
NEWCASTLE      FAIR      25  19  80 NW16      29.97  WCI  12          

$$
WYZ014>020-022>026-101>103-182100-
CENTRAL WYOMING
  
CITY           SKY/WX    TMP DP  RH WIND       PRES   REMARKS
BIG PINEY      FAIR      32  20  61 N21G29    30.06S WCI  20          
PINEDALE       FAIR      30  23  74 NW20      30.06  WCI  18          
DUBOIS         MOCLDY    32  16  51 W22       30.00  WCI  19          
LANDER         FAIR      39  23  52 E5        29.99R                  
RIVERTON       FAIR      37  22  54 SE6       29.99S WCI  32          
CASPER         FAIR      31  23  72 S7        29.97F WCI  24          
DOUGLAS        CLOUDY    30  25  81 NW12      29.99R WCI  20          

$$
WYZ021-027>030-104>119-182100-
SOUTHERN WYOMING
  
CITY           SKY/WX    TMP DP  RH WIND       PRES   REMARKS
EVANSTON       CLOUDY    27  22  81 SW14      30.16R WCI  16          
ROCK SPRINGS   CLOUDY    27  23  85 W22       30.06S WCI  13          
DIXON          LGT SNOW  30  26  83 NW20      30.04R WCI  18          
RAWLINS        CLOUDY    31  25  78 W14       29.99S WCI  21          
SARATOGA       LGT SNOW  30  30 100 W14       29.99R WCI  20          
LARAMIE        LGT SNOW  28  25  88 NW18      29.91S FOG     WCI  15  
CHEYENNE       LGT SNOW  30  25  81 N31G44    29.89R WCI  15          
TORRINGTON     CLOUDY    34  27  75 N18G26    29.94S WCI  23          
PINE BLUFFS    CLOUDY    30  25  80 N25G33    29.90R WCI  16          

$$